Вернуться в каталог

STARLINK-36587

АктивенСвязьSSO
NORAD 67532·PAYLOAD·🇺🇸 United States

Запущен Jan 22, 2026 с Vandenberg Space Force Base

Loading…

Ближайшие Пролёты (ближайшие 24 часа)

TLE

СвежийSource: CelesTrak SupGP

Эпоха: Sep 15, 2026, 03:31 UTC

1 67532C 26014A   26258.14701389  .00060899  00000+0  18895-2 0  2584
2 67532  97.2850 143.6242 0001878  95.1735 144.1490 15.33423798    11

Отслеживайте STARLINK-36587 в реальном времени с AllMySat

Download on the App Store